Location: Haliburton Scout Reserve
(45.0900°N, 78.3200°W)
Time: 01:53:58
(UTC-04:00)

ESTCUBE 1 - Pass Details

Date: 24 May 2022
Orbit: 644 x 659 km, 97.9° (Epoch: 27 June)

Event Time Altitude Azimuth Distance (km) Brightness Sun altitude
Exits shadow 23:06:16 37° 141° (SE) 1,012 ? -18.2°
Maximum altitude 23:07:54 64° 74° (ENE) 723 ? -18.3°
Drops below altitude 10° 23:12:21 10° 353° (N) 2,066 ? -18.7°
Sets 23:14:35 0° 350° (N) 2,979 ? -18.9°
